Weather History for McKinney, TX

Change the Weather History Date:

Friday, November 22, 2013

  Actual Average (KADS) Record (KADS)
Temperature  
Mean Temperature 38 °F -  
Max Temperature 41 °F 62 °F 78 °F (1999)
Min Temperature 35 °F 46 °F 33 °F (2013)
Degree Days  
Heating Degree Days 27    
Moisture  
Dew Point 34 °F    
Average Humidity 90    
Maximum Humidity 96    
Minimum Humidity 81    
Precipitation  
Precipitation 0.25 in - - ()
Sea Level Pressure  
Sea Level Pressure 30.40 in    
Wind  
Wind Speed 17 mph (North)    
Max Wind Speed 22 mph    
Max Gust Speed 32 mph    
Visibility 6 miles    
Events Rain    
Averages and records for this station are not official NWS values.
T = Trace of Precipitation, MM = Missing Value Source: NWS Daily Summary

Daily Weather History Graph

Daily Weather History Graph

Search for Another Location

Airport:

Trip Planner

Search our weather history database for the weather conditions in past years. The results will help you decide how hot, cold, wet, or windy it might be!

Date:

Astronomy

Nov. 22, 2013 Rise Set
Actual Time 7:03 AM CST 5:20 PM CST
Civil Twilight 6:37 AM CST 5:47 PM CST
Nautical Twilight 6:07 AM CST 6:17 PM CST
Astronomical Twilight 5:37 AM CST 6:47 PM CST
Moon 9:50 PM CST (11/22) 10:51 AM CST (11/22)
Length of Visible Light 11h 10m
Length of Day
10h 17m
Waning Gibbous, 78% of the Moon is Illuminated
Nov 22
Waning Gibbous
Nov 25
Last Quarter
Dec 2
New
Dec 9
First Quarter
Dec 17
Full

Hourly Weather History & Observations

Time (CST) Temp. Windchill Dew Point Humidity Pressure Visibility Wind Dir Wind Speed Gust Speed Precip Events Conditions
12:53 AM 41.0 °F 32.2 °F 37.9 °F 89% 30.26 in 10.0 mi North 18.4 mph 26.5 mph N/A   Overcast
1:53 AM 39.9 °F 30.5 °F 37.0 °F 89% 30.27 in 10.0 mi NNW 19.6 mph 31.1 mph N/A   Overcast
2:53 AM 39.0 °F 29.0 °F 36.0 °F 89% 30.29 in 10.0 mi North 20.7 mph 28.8 mph N/A   Overcast
3:53 AM 39.0 °F 29.9 °F 35.1 °F 86% 30.31 in 10.0 mi North 17.3 mph 26.5 mph N/A   Overcast
4:53 AM 37.9 °F 30.0 °F 35.1 °F 89% 30.34 in 10.0 mi North 12.7 mph 21.9 mph N/A   Overcast
5:08 AM 39.2 °F 30.8 °F 35.6 °F 87% 30.32 in 10.0 mi North 15.0 mph 23.0 mph N/A   Overcast
5:40 AM 37.4 °F 28.2 °F 35.6 °F 93% 30.34 in 6.0 mi NNW 16.1 mph 21.9 mph N/A   Overcast
5:53 AM 37.9 °F 28.2 °F 35.1 °F 89% 30.35 in 7.0 mi NNW 18.4 mph 24.2 mph N/A   Overcast
6:53 AM 37.0 °F 26.4 °F 34.0 °F 89% 30.38 in 7.0 mi NNW 20.7 mph 27.6 mph 0.00 in Rain Light Rain
7:20 AM 37.4 °F 26.9 °F 33.8 °F 87% 30.37 in 10.0 mi North 20.7 mph - 0.00 in   Overcast
7:53 AM 36.0 °F 26.0 °F 32.0 °F 86% 30.40 in 10.0 mi North 17.3 mph 32.2 mph 0.00 in   Overcast
8:09 AM 37.4 °F 26.6 °F 32.0 °F 81% 30.38 in 10.0 mi North 21.9 mph 29.9 mph N/A   Overcast
8:53 AM 36.0 °F 25.0 °F 32.0 °F 86% 30.43 in 10.0 mi North 20.7 mph 27.6 mph 0.01 in Rain Light Rain
9:45 AM 35.6 °F 25.2 °F 32.0 °F 87% 30.40 in 7.0 mi North 18.4 mph 26.5 mph 0.00 in   Overcast
9:53 AM 35.1 °F 24.5 °F 30.9 °F 85% 30.43 in 5.0 mi North 18.4 mph 32.2 mph 0.00 in Rain Light Rain
10:53 AM 36.0 °F 26.0 °F 32.0 °F 86% 30.46 in 10.0 mi North 17.3 mph - 0.00 in   Overcast
11:53 AM 35.1 °F 25.9 °F 32.0 °F 89% 30.45 in 3.0 mi North 13.8 mph - 0.00 in Rain Light Rain
11:59 AM 35.6 °F 25.2 °F 32.0 °F 87% 30.40 in 2.0 mi North 18.4 mph 24.2 mph 0.00 in Rain Light Rain
12:28 PM 35.6 °F 25.9 °F 33.8 °F 93% 30.40 in 3.0 mi North 16.1 mph 23.0 mph 0.00 in Rain Light Rain
12:32 PM 35.6 °F 27.5 °F 33.8 °F 93% 30.40 in 6.0 mi North 11.5 mph 23.0 mph 0.00 in Rain Light Rain
12:53 PM 36.0 °F 26.7 °F 34.0 °F 93% 30.43 in 4.0 mi North 15.0 mph - 0.01 in Rain Rain
1:30 PM 35.6 °F 27.5 °F 33.8 °F 93% 30.39 in 2.5 mi NNW 11.5 mph 19.6 mph 0.03 in Rain Light Rain
1:51 PM 35.6 °F 25.5 °F 33.8 °F 93% 30.38 in 2.5 mi North 17.3 mph 23.0 mph 0.04 in Rain Light Freezing Rain
1:53 PM 36.0 °F 27.1 °F 34.0 °F 93% 30.43 in 2.5 mi North 13.8 mph 23.0 mph 0.04 in Rain Light Freezing Rain
1:56 PM 35.6 °F 26.6 °F 33.8 °F 93% 30.38 in 2.5 mi North 13.8 mph 23.0 mph 0.00 in Rain Light Rain
2:03 PM 35.6 °F 28.0 °F 33.8 °F 93% 30.38 in 2.0 mi NNW 10.4 mph 19.6 mph 0.01 in Rain Light Rain
2:53 PM 36.0 °F 27.5 °F 34.0 °F 93% 30.43 in 2.0 mi North 12.7 mph - 0.08 in Rain Light Rain
3:00 PM 35.6 °F 24.8 °F 33.8 °F 93% 30.38 in 5.0 mi North 19.6 mph 25.3 mph 0.00 in Rain Light Rain
3:13 PM 35.6 °F 24.5 °F 33.8 °F 93% 30.38 in 4.0 mi North 20.7 mph 25.3 mph 0.00 in Rain Light Rain
3:53 PM 35.1 °F 24.1 °F 32.0 °F 89% 30.42 in 10.0 mi North 19.6 mph 26.5 mph 0.00 in Rain Light Rain
4:53 PM 35.1 °F 24.8 °F 32.0 °F 89% 30.43 in 2.0 mi North 17.3 mph - 0.01 in Rain Light Rain
5:53 PM 35.1 °F 25.9 °F 33.1 °F 92% 30.45 in 4.0 mi North 13.8 mph - 0.03 in Rain Light Rain
6:53 PM 35.1 °F 26.4 °F 33.1 °F 92% 30.46 in 8.0 mi North 12.7 mph - 0.00 in Rain Light Rain
7:53 PM 35.1 °F 26.4 °F 33.1 °F 92% 30.47 in 10.0 mi North 12.7 mph - 0.01 in Rain Light Rain
8:53 PM 35.1 °F 26.4 °F 34.0 °F 96% 30.48 in 5.0 mi North 12.7 mph - 0.02 in Rain Light Rain
9:53 PM 35.1 °F 25.5 °F 33.1 °F 92% 30.49 in 5.0 mi North 15.0 mph - 0.01 in Rain Light Rain
10:53 PM 35.1 °F 25.9 °F 34.0 °F 96% 30.50 in 7.0 mi North 13.8 mph - 0.02 in Rain Light Rain
11:53 PM 35.1 °F 25.5 °F 33.1 °F 92% 30.50 in 7.0 mi North 15.0 mph - 0.01 in Rain Light Rain